This is the latest recevied weather packets stored in our database for station/object YC2UTR-2. If no packets are shown the sender has not sent any weather packets the latest 10 day(s).
| Time | Temp. | Humidity | Pressure | Rain* | Wind** | Luminosity | Snow |
|---|---|---|---|---|---|---|---|
| 1787881678 | 26.11° C | 68% | 1020.3 hPa | - | - | - | - |
| 1787881378 | 26.11° C | 71% | 1020.3 hPa | - | - | - | - |
| 1787881078 | 25.56° C | 71% | 1020.3 hPa | - | - | - | - |
| 1787880778 | 25.56° C | 73% | 1020.4 hPa | - | - | - | - |
| 1787880478 | 25.56° C | 74% | 1020.2 hPa | - | - | - | - |
| 1787880178 | 25° C | 74% | 1020.3 hPa | - | - | - | - |
| 1787879878 | 25° C | 76% | 1020.4 hPa | - | - | - | - |
| 1787879578 | 25° C | 76% | 1020.4 hPa | - | - | - | - |
| 1787879278 | 24.44° C | 77% | 1020.4 hPa | - | - | - | - |
| 1787878978 | 25° C | 76% | 1020.4 hPa | - | - | - | - |
| 1787878678 | 25° C | 76% | 1020.4 hPa | - | - | - | - |
| 1787878378 | 25° C | 76% | 1020.3 hPa | - | - | - | - |
| 1787878078 | 25° C | 76% | 1020.2 hPa | - | - | - | - |
| 1787877778 | 24.44° C | 77% | 1020.2 hPa | - | - | - | - |
| 1787877478 | 24.44° C | 77% | 1020.2 hPa | - | - | - | - |
| 1787877178 | 24.44° C | 79% | 1020.1 hPa | - | - | - | - |
| 1787876878 | 24.44° C | 79% | 1020 hPa | - | - | - | - |
| 1787876578 | 23.89° C | 79% | 1020.1 hPa | - | - | - | - |
| 1787876278 | 23.89° C | 79% | 1020.1 hPa | - | - | - | - |
| 1787875978 | 23.89° C | 78% | 1020.1 hPa | - | - | - | - |
| 1787875678 | 23.89° C | 79% | 1020 hPa | - | - | - | - |
| 1787875378 | 23.33° C | 80% | 1020 hPa | - | - | - | - |
| 1787875079 | 23.33° C | 80% | 1019.9 hPa | - | - | - | - |
| 1787874778 | 23.33° C | 80% | 1019.8 hPa | - | - | - | - |
| 1787874479 | 22.78° C | 81% | 1019.9 hPa | - | - | - | - |
* Rain since midnight (hover to see other rain measurements)
** Current wind speed in m/s (hover to see current wind gust speed)